Weather History for Luqa, Malta

Change the Weather History Date:

Friday, January 18, 2013

  Actual Average Record
Temperature  
Mean Temperature 50 °F -  
Max Temperature 55 °F 60 °F 64 °F (2007)
Min Temperature 44 °F 49 °F 42 °F (2005)
Degree Days  
Heating Degree Days 16    
Moisture  
Dew Point 41 °F    
Average Humidity 65    
Maximum Humidity 87    
Minimum Humidity 43    
Precipitation  
Precipitation 0.31 in 0.09 in - ()
Sea Level Pressure  
Sea Level Pressure 29.68 in    
Wind  
Wind Speed 21 mph ()    
Max Wind Speed 34 mph    
Max Gust Speed 47 mph    
Visibility 6.4 miles    
Events Rain , Hail , Thunderstorm    
Averages and records for this station are not official NWS values.
T = Trace of Precipitation, MM = Missing Value Source: Averaged Metar Reports

Daily Weather History Graph

Daily Weather History Graph

Search for Another Location

Airport:

Trip Planner

Search our weather history database for the weather conditions in past years. The results will help you decide how hot, cold, wet, or windy it might be!

Date:

Astronomy

Jan. 18, 2013 Rise Set
Actual Time 7:10 AM CET 5:14 PM CET
Civil Twilight 6:42 AM CET 5:42 PM CET
Nautical Twilight 6:11 AM CET 6:13 PM CET
Astronomical Twilight 5:41 AM CET 6:44 PM CET
Moon 10:55 AM CET (1/18) No Moon Set
Length of Visible Light 10h 59m
Length of Day
10h 04m
Waxing Crescent, 45% of the Moon is Illuminated
Jan 18
Waxing Crescent
Jan 19
First Quarter
Jan 27
Full
Feb 3
Last Quarter
Feb 10
New

Hourly Weather History & Observations

Time (CET) Temp. Windchill Dew Point Humidity Pressure Visibility Wind Dir Wind Speed Gust Speed Precip Events Conditions
12:15 AM 53.6 °F - 41.0 °F 62% 29.65 in 6.2 mi NW 24.2 mph 38.0 mph N/A   Partly Cloudy
12:45 AM 53.6 °F - 41.0 °F 62% 29.65 in 6.2 mi NW 23.0 mph - N/A   Mostly Cloudy
1:00 AM 53 °F - 41 °F 54% 29.68 in 6 mi NW 21.9 mph - -   Partly Cloudy
1:15 AM 53.6 °F - 41.0 °F 62% 29.65 in 6.2 mi NW 25.3 mph 39.1 mph N/A   Scattered Clouds
1:45 AM 51.8 °F - 41.0 °F 67% 29.65 in 6.2 mi NW 21.9 mph 33.4 mph N/A   Partly Cloudy
2:15 AM 51.8 °F - 39.2 °F 62% 29.65 in - WNW 25.3 mph - N/A   Clear
2:45 AM 51.8 °F - 37.4 °F 58% 29.65 in 6.2 mi WNW 24.2 mph - N/A   Scattered Clouds
3:07 AM 51.8 °F - 37.4 °F 58% 29.65 in 6.2 mi WNW 23.0 mph - N/A   Partly Cloudy
3:15 AM 51.8 °F - 37.4 °F 58% 29.65 in 6.2 mi WNW 23.0 mph - N/A   Scattered Clouds
3:45 AM 51.8 °F - 39.2 °F 62% 29.65 in 6.2 mi NW 25.3 mph - N/A   Scattered Clouds
4:00 AM 52 °F - 39 °F 49% 29.67 in 11 mi NW 23.0 mph - -   Scattered Clouds
4:15 AM 51.8 °F - 35.6 °F 54% 29.65 in 6.2 mi WNW 25.3 mph - N/A   Partly Cloudy
4:45 AM 51.8 °F - 37.4 °F 58% 29.65 in 6.2 mi NW 25.3 mph 38.0 mph N/A   Partly Cloudy
5:15 AM 51.8 °F - 37.4 °F 58% 29.65 in 6.2 mi WNW 20.7 mph - N/A   Partly Cloudy
5:45 AM 51.8 °F - 35.6 °F 54% 29.65 in 6.2 mi WNW 25.3 mph 36.8 mph N/A   Partly Cloudy
6:15 AM 51.8 °F - 35.6 °F 54% 29.65 in 6.2 mi WNW 24.2 mph 35.7 mph N/A   Scattered Clouds
6:45 AM 46.4 °F 38.3 °F 39.2 °F 76% 29.68 in 6.2 mi NNW 23.0 mph 34.5 mph N/A   Partly Cloudy
7:00 AM 46 °F - 41 °F 77% 29.68 in 6 mi NNW 16.1 mph - - Rain Light Rain Showers
7:09 AM 48.2 °F - 42.8 °F 82% 29.65 in 6.2 mi NW 17.3 mph 31.1 mph N/A Rain Light Rain Showers
7:15 AM 50.0 °F - 42.8 °F 76% 29.65 in 6.2 mi WNW 23.0 mph 34.5 mph N/A Rain Light Rain Showers
7:45 AM 50.0 °F - 41.0 °F 71% 29.65 in 6.2 mi WNW 20.7 mph 35.7 mph N/A Rain Light Rain Showers
8:15 AM 50.0 °F - 39.2 °F 66% 29.65 in 6.2 mi West 17.3 mph 28.8 mph N/A Thunderstorm Thunderstorm
8:34 AM 51.8 °F - 41.0 °F 67% 29.68 in 1.9 mi NW 34.5 mph - N/A Hail , Thunderstorm Light Thunderstorms with Hail
8:45 AM 44.6 °F 35.3 °F 39.2 °F 81% 29.71 in 1.9 mi NW 26.5 mph 44.9 mph N/A Rain , Thunderstorm Rain Showers
9:15 AM 46.4 °F 38.3 °F 41.0 °F 81% 29.68 in 6.2 mi WNW 23.0 mph 42.6 mph N/A   Scattered Clouds
9:45 AM 50.0 °F - 42.8 °F 76% 29.68 in 6.2 mi WNW 21.9 mph - N/A   Partly Cloudy
10:00 AM 51 °F - 43 °F 65% 29.69 in 9 mi WNW 25.3 mph - - Thunderstorm Light Thunderstorm
10:15 AM 51.8 °F - 44.6 °F 76% 29.68 in 6.2 mi WNW 24.2 mph 36.8 mph N/A   Scattered Clouds
10:45 AM 48.2 °F - 39.2 °F 71% 29.68 in 3.7 mi WNW 33.4 mph - N/A Rain , Thunderstorm Light Thunderstorms and Rain
11:15 AM 51.8 °F - 44.6 °F 76% 29.68 in 6.2 mi WNW 20.7 mph - N/A   Scattered Clouds
11:45 AM 51.8 °F - 42.8 °F 71% 29.68 in 3.1 mi NW 26.5 mph 47.2 mph N/A Rain Light Rain Showers
12:00 PM 46.4 °F 38.3 °F 41.0 °F 81% 29.68 in 6.2 mi NNW 23.0 mph 36.8 mph N/A   Scattered Clouds
12:15 PM 48.2 °F - 44.6 °F 87% 29.68 in 6.2 mi NW 20.7 mph 33.4 mph N/A   Scattered Clouds
12:45 PM 53.6 °F - 44.6 °F 72% 29.65 in 6.2 mi NW 23.0 mph - N/A   Scattered Clouds
1:00 PM 54 °F - 43 °F 56% 29.68 in 9 mi NW 25.3 mph - - Rain Light Rain Showers
1:15 PM 50.0 °F - 42.8 °F 76% 29.68 in 5.0 mi NW 28.8 mph - N/A Rain Light Rain Showers
1:45 PM 51.8 °F - 42.8 °F 71% 29.65 in 6.2 mi NW 28.8 mph 40.3 mph N/A   Scattered Clouds
2:15 PM 51.8 °F - 42.8 °F 71% 29.65 in 6.2 mi WNW 21.9 mph - N/A   Partly Cloudy
2:45 PM 53.6 °F - 42.8 °F 67% 29.65 in - WNW 23.0 mph - N/A   Clear
3:07 PM 53.6 °F - 42.8 °F 67% 29.65 in 6.2 mi NW 23.0 mph 36.8 mph N/A Hail Light Hail
3:45 PM 51.8 °F - 42.8 °F 71% 29.65 in 6.2 mi WNW 19.6 mph 34.5 mph N/A   Scattered Clouds
4:00 PM 52 °F - 42 °F 58% 29.68 in 9 mi NW 20.7 mph - - Hail Light Hail Showers
4:15 PM 53.6 °F - 37.4 °F 54% 29.68 in 6.2 mi NW 26.5 mph - N/A   Scattered Clouds
4:45 PM 53.6 °F - 37.4 °F 54% 29.68 in 6.2 mi NW 24.2 mph - N/A   Scattered Clouds
5:15 PM 51.8 °F - 37.4 °F 58% 29.68 in 6.2 mi NW 24.2 mph - N/A   Scattered Clouds
5:45 PM 53.6 °F - 37.4 °F 54% 29.68 in 6.2 mi NW 23.0 mph - N/A   Scattered Clouds
6:15 PM 53.6 °F - 39.2 °F 58% 29.71 in 6.2 mi NW 21.9 mph - N/A   Scattered Clouds
6:45 PM 53.6 °F - 39.2 °F 58% 29.71 in 6.2 mi WNW 21.9 mph - N/A   Partly Cloudy
7:00 PM 53 °F - 37 °F 43% 29.74 in 19 mi WNW 23.0 mph - -   Partly Cloudy
7:15 PM 51.8 °F - 37.4 °F 58% 29.74 in 6.2 mi NW 19.6 mph - N/A   Partly Cloudy
7:45 PM 51.8 °F - 37.4 °F 58% 29.74 in 6.2 mi NW 17.3 mph - N/A   Partly Cloudy
8:15 PM 51.8 °F - 39.2 °F 62% 29.74 in 6.2 mi WNW 16.1 mph - N/A   Partly Cloudy
9:15 PM 51.8 °F - 41.0 °F 67% 29.74 in 6.2 mi WNW 11.5 mph - N/A   Partly Cloudy
9:45 PM 53.6 °F - 41.0 °F 62% 29.74 in 6.2 mi WNW 11.5 mph - N/A   Partly Cloudy
10:00 PM 53 °F - 42 °F 57% 29.76 in 7 mi WNW 9.2 mph - -   Scattered Clouds
10:15 PM 51.8 °F - 42.8 °F 71% 29.74 in 6.2 mi WNW 8.1 mph - N/A   Partly Cloudy
10:45 PM 53.6 °F - 44.6 °F 72% 29.74 in 6.2 mi WNW 11.5 mph - N/A   Mostly Cloudy
11:15 PM 55.4 °F - 46.4 °F 72% 29.74 in 6.2 mi WNW 13.8 mph - N/A   Mostly Cloudy
11:45 PM 53.6 °F - 46.4 °F 77% 29.74 in 6.2 mi WNW 11.5 mph - N/A   Mostly Cloudy